Time,TemperatureF,DewpointF,PressureIn,WindDirection,WindDirectionDegrees,WindSpeedMPH,WindSpeedGustMPH,Humidity,HourlyPrecipIn,Conditions,Clouds,dailyrainin,SoftwareType,DateUTC
2013-12-23 00:04:00,16.8,13.6,30.20,NNE,23,0.0,1.0,87,0.00,,,0.00,VWS V12.07,2013-12-23 06:04:00,
2013-12-23 00:09:00,16.7,13.5,30.21,NNE,23,0.0,1.0,87,0.00,,,0.00,VWS V12.07,2013-12-23 06:09:00,
2013-12-23 00:19:00,16.6,13.4,30.21,NNE,25,1.0,2.0,87,0.00,,,0.00,VWS V12.07,2013-12-23 06:19:00,
2013-12-23 00:24:00,16.6,13.7,30.20,NNE,25,0.0,2.0,88,0.00,,,0.00,VWS V12.07,2013-12-23 06:24:00,
2013-12-23 00:29:00,16.5,13.6,30.20,NNE,26,0.0,2.0,88,0.00,,,0.00,VWS V12.07,2013-12-23 06:29:00,
2013-12-23 00:39:00,16.3,13.4,30.20,NNE,27,0.0,2.0,88,0.00,,,0.00,VWS V12.07,2013-12-23 06:39:00,
2013-12-23 00:44:00,16.3,13.4,30.21,NNE,26,0.0,2.0,88,0.00,,,0.00,VWS V12.07,2013-12-23 06:44:00,
2013-12-23 00:49:00,16.2,13.3,30.21,NNE,27,0.0,2.0,88,0.00,,,0.00,VWS V12.07,2013-12-23 06:49:00,
2013-12-23 00:54:00,16.2,13.3,30.21,NNE,24,0.0,3.0,88,0.00,,,0.00,VWS V12.07,2013-12-23 06:54:00,
2013-12-23 00:59:00,16.2,13.3,30.21,NNE,25,0.0,3.0,88,0.00,,,0.00,VWS V12.07,2013-12-23 06:59:00,
2013-12-23 01:04:00,16.1,13.2,30.21,NNE,25,0.0,0.0,88,0.00,,,0.00,VWS V12.07,2013-12-23 07:04:00,
2013-12-23 01:14:00,16.0,13.1,30.21,NNE,24,0.0,2.0,88,0.00,,,0.00,VWS V12.07,2013-12-23 07:14:00,
2013-12-23 01:24:00,15.7,12.8,30.22,NNE,25,0.0,2.0,88,0.00,,,0.00,VWS V12.07,2013-12-23 07:24:00,
2013-12-23 01:29:00,15.7,12.8,30.22,NNE,25,0.0,2.0,88,0.00,,,0.00,VWS V12.07,2013-12-23 07:29:00,
2013-12-23 01:34:00,15.5,12.6,30.22,NNE,25,0.0,0.0,88,0.00,,,0.00,VWS V12.07,2013-12-23 07:34:00,
2013-12-23 01:39:00,15.4,12.5,30.22,NNE,24,0.0,0.0,88,0.00,,,0.00,VWS V12.07,2013-12-23 07:39:00,
2013-12-23 01:44:00,15.3,12.4,30.23,NNE,24,0.0,0.0,88,0.00,,,0.00,VWS V12.07,2013-12-23 07:44:00,
2013-12-23 01:49:00,15.3,12.4,30.23,NNE,25,0.0,0.0,88,0.00,,,0.00,VWS V12.07,2013-12-23 07:49:00,
2013-12-23 01:54:00,15.3,12.4,30.23,NNE,24,0.0,0.0,88,0.00,,,0.00,VWS V12.07,2013-12-23 07:54:00,
2013-12-23 01:59:00,15.3,12.4,30.23,NNE,24,0.0,0.0,88,0.00,,,0.00,VWS V12.07,2013-12-23 07:59:00,
2013-12-23 02:04:00,15.2,12.3,30.23,NNE,24,0.0,0.0,88,0.00,,,0.00,VWS V12.07,2013-12-23 08:04:00,
2013-12-23 02:09:00,15.2,12.3,30.23,NNE,24,0.0,0.0,88,0.00,,,0.00,VWS V12.07,2013-12-23 08:09:00,
2013-12-23 02:19:00,15.1,12.2,30.24,NNE,25,0.0,0.0,88,0.00,,,0.00,VWS V12.07,2013-12-23 08:19:00,
2013-12-23 02:24:00,15.1,12.2,30.24,NNE,24,0.0,0.0,88,0.00,,,0.00,VWS V12.07,2013-12-23 08:24:00,
2013-12-23 02:29:00,15.1,12.2,30.24,NNE,25,0.0,0.0,88,0.00,,,0.00,VWS V12.07,2013-12-23 08:29:00,
2013-12-23 02:34:00,15.0,12.1,30.24,NNE,24,0.0,0.0,88,0.00,,,0.00,VWS V12.07,2013-12-23 08:34:00,
2013-12-23 02:39:00,14.9,12.0,30.24,NNE,24,0.0,0.0,88,0.00,,,0.00,VWS V12.07,2013-12-23 08:39:00,
2013-12-23 02:49:00,14.9,12.0,30.25,NNE,25,0.0,0.0,88,0.00,,,0.00,VWS V12.07,2013-12-23 08:49:00,
2013-12-23 02:54:00,14.9,12.0,30.25,NNE,33,0.0,3.0,88,0.00,,,0.00,VWS V12.07,2013-12-23 08:54:00,
2013-12-23 03:04:00,14.9,12.0,30.25,NE,34,0.0,0.0,88,0.00,,,0.00,VWS V12.07,2013-12-23 09:04:00,
2013-12-23 03:13:00,14.8,11.9,30.25,NE,34,0.0,1.0,88,0.00,,,0.00,VWS V12.07,2013-12-23 09:13:00,
2013-12-23 03:18:00,14.8,11.9,30.25,NNE,33,0.0,2.0,88,0.00,,,0.00,VWS V12.07,2013-12-23 09:18:00,
2013-12-23 03:23:00,14.8,11.9,30.25,NE,34,0.0,2.0,88,0.00,,,0.00,VWS V12.07,2013-12-23 09:23:00,
2013-12-23 03:28:00,14.8,11.6,30.25,NE,34,0.0,2.0,87,0.00,,,0.00,VWS V12.07,2013-12-23 09:28:00,
2013-12-23 03:38:00,14.6,11.4,30.25,NNE,33,0.0,0.0,87,0.00,,,0.00,VWS V12.07,2013-12-23 09:38:00,
2013-12-23 03:43:00,14.6,11.4,30.26,NNE,33,0.0,1.0,87,0.00,,,0.00,VWS V12.07,2013-12-23 09:43:00,
2013-12-23 03:48:00,14.5,11.3,30.26,NNE,33,0.0,1.0,87,0.00,,,0.00,VWS V12.07,2013-12-23 09:48:00,
2013-12-23 03:53:00,14.5,11.3,30.26,NE,34,0.0,1.0,87,0.00,,,0.00,VWS V12.07,2013-12-23 09:53:00,
2013-12-23 03:58:00,14.4,11.2,30.26,NE,34,0.0,1.0,87,0.00,,,0.00,VWS V12.07,2013-12-23 09:58:00,
2013-12-23 04:03:00,14.4,11.2,30.26,NE,34,0.0,0.0,87,0.00,,,0.00,VWS V12.07,2013-12-23 10:03:00,
2013-12-23 04:08:00,14.3,11.1,30.26,NE,34,0.0,1.0,87,0.00,,,0.00,VWS V12.07,2013-12-23 10:08:00,
2013-12-23 04:13:00,14.3,11.1,30.26,NE,34,0.0,1.0,87,0.00,,,0.00,VWS V12.07,2013-12-23 10:13:00,
2013-12-23 04:18:00,14.3,11.1,30.26,NNE,33,0.0,2.0,87,0.00,,,0.00,VWS V12.07,2013-12-23 10:18:00,
2013-12-23 04:23:00,14.2,11.1,30.26,NE,34,0.0,2.0,87,0.00,,,0.00,VWS V12.07,2013-12-23 10:23:00,
2013-12-23 04:28:00,14.1,10.9,30.26,NNE,33,0.0,2.0,87,0.00,,,0.00,VWS V12.07,2013-12-23 10:28:00,
2013-12-23 04:33:00,14.0,10.9,30.26,NNE,33,0.0,0.0,87,0.00,,,0.00,VWS V12.07,2013-12-23 10:33:00,
2013-12-23 04:38:00,13.9,10.8,30.26,NE,34,0.0,2.0,87,0.00,,,0.00,VWS V12.07,2013-12-23 10:38:00,
2013-12-23 04:43:00,13.8,10.6,30.26,NNE,33,0.0,2.0,87,0.00,,,0.00,VWS V12.07,2013-12-23 10:43:00,
2013-12-23 04:48:00,13.7,10.6,30.26,NNE,33,0.0,2.0,87,0.00,,,0.00,VWS V12.07,2013-12-23 10:48:00,
2013-12-23 04:58:00,13.6,10.5,30.27,NE,35,0.0,2.0,87,0.00,,,0.00,VWS V12.07,2013-12-23 10:58:00,
2013-12-23 05:03:00,13.6,10.5,30.27,NNE,33,0.0,2.0,87,0.00,,,0.00,VWS V12.07,2013-12-23 11:03:00,
2013-12-23 05:08:00,13.6,10.5,30.27,NNE,33,0.0,2.0,87,0.00,,,0.00,VWS V12.07,2013-12-23 11:08:00,
2013-12-23 05:13:00,13.5,10.4,30.27,NNE,33,0.0,2.0,87,0.00,,,0.00,VWS V12.07,2013-12-23 11:13:00,
2013-12-23 05:18:00,13.4,10.3,30.27,NNE,33,0.0,2.0,87,0.00,,,0.00,VWS V12.07,2013-12-23 11:18:00,
2013-12-23 05:23:00,13.3,10.2,30.27,NNE,33,0.0,2.0,87,0.00,,,0.00,VWS V12.07,2013-12-23 11:23:00,
2013-12-23 05:33:00,13.2,10.1,30.27,NNE,33,0.0,0.0,87,0.00,,,0.00,VWS V12.07,2013-12-23 11:33:00,
2013-12-23 05:38:00,13.1,10.0,30.27,NNE,33,0.0,1.0,87,0.00,,,0.00,VWS V12.07,2013-12-23 11:38:00,
2013-12-23 05:43:00,13.0,9.9,30.28,NE,34,0.0,1.0,87,0.00,,,0.00,VWS V12.07,2013-12-23 11:43:00,
2013-12-23 05:53:00,13.0,9.9,30.28,NE,34,1.0,2.0,87,0.00,,,0.00,VWS V12.07,2013-12-23 11:53:00,
2013-12-23 05:58:00,13.0,9.9,30.28,NNE,17,0.0,2.0,87,0.00,,,0.00,VWS V12.07,2013-12-23 11:58:00,
2013-12-23 06:03:00,12.9,9.8,30.28,NNE,17,0.0,1.0,87,0.00,,,0.00,VWS V12.07,2013-12-23 12:03:00,
2013-12-23 06:13:00,12.8,9.7,30.29,NNE,33,0.0,1.0,87,0.00,,,0.00,VWS V12.07,2013-12-23 12:13:00,
2013-12-23 06:18:00,12.8,9.7,30.29,NNE,33,0.0,1.0,87,0.00,,,0.00,VWS V12.07,2013-12-23 12:18:00,
2013-12-23 06:23:00,12.8,9.7,30.29,NNE,32,1.0,2.0,87,0.00,,,0.00,VWS V12.07,2013-12-23 12:23:00,
2013-12-23 06:28:00,12.7,9.6,30.29,NNE,32,0.0,2.0,87,0.00,,,0.00,VWS V12.07,2013-12-23 12:28:00,
2013-12-23 06:33:00,12.6,9.5,30.29,NNE,32,1.0,1.0,87,0.00,,,0.00,VWS V12.07,2013-12-23 12:33:00,
2013-12-23 06:43:00,12.3,8.9,30.30,North,5,1.0,3.0,86,0.00,,,0.00,VWS V12.07,2013-12-23 12:43:00,
2013-12-23 06:48:00,12.3,8.9,30.30,North,5,0.0,3.0,86,0.00,,,0.00,VWS V12.07,2013-12-23 12:48:00,
2013-12-23 06:58:00,12.1,8.7,30.31,North,5,1.0,3.0,86,0.00,,,0.00,VWS V12.07,2013-12-23 12:58:00,
2013-12-23 07:08:00,11.9,8.5,30.31,North,360,0.0,0.0,86,0.00,,,0.00,VWS V12.07,2013-12-23 13:08:00,
2013-12-23 07:18:00,11.6,8.2,30.31,North,5,0.0,1.0,86,0.00,,,0.00,VWS V12.07,2013-12-23 13:18:00,
2013-12-23 07:23:00,11.5,8.1,30.31,North,5,1.0,1.0,86,0.00,,,0.00,VWS V12.07,2013-12-23 13:23:00,
2013-12-23 07:28:00,11.4,8.0,30.32,North,5,1.0,1.0,86,0.00,,,0.00,VWS V12.07,2013-12-23 13:28:00,
2013-12-23 07:33:00,11.3,7.9,30.32,North,5,0.0,0.0,86,0.00,,,0.00,VWS V12.07,2013-12-23 13:33:00,
2013-12-23 07:38:00,11.1,7.7,30.32,North,5,0.0,0.0,86,0.00,,,0.00,VWS V12.07,2013-12-23 13:38:00,
2013-12-23 07:43:00,11.1,7.7,30.32,North,10,1.0,2.0,86,0.00,,,0.00,VWS V12.07,2013-12-23 13:43:00,
2013-12-23 07:48:00,11.1,7.7,30.32,NNE,13,1.0,2.0,86,0.00,,,0.00,VWS V12.07,2013-12-23 13:48:00,
2013-12-23 07:53:00,11.0,7.6,30.33,NNE,13,1.0,2.0,86,0.00,,,0.00,VWS V12.07,2013-12-23 13:53:00,
2013-12-23 07:58:00,11.0,7.6,30.33,NNE,14,0.0,2.0,86,0.00,,,0.00,VWS V12.07,2013-12-23 13:58:00,
2013-12-23 08:03:00,11.0,7.6,30.33,NNE,14,0.0,0.0,86,0.00,,,0.00,VWS V12.07,2013-12-23 14:03:00,
2013-12-23 08:13:00,11.0,7.6,30.33,NNE,14,0.0,1.0,86,0.00,,,0.00,VWS V12.07,2013-12-23 14:13:00,
2013-12-23 08:18:00,11.0,7.6,30.33,NNE,14,0.0,1.0,86,0.00,,,0.00,VWS V12.07,2013-12-23 14:18:00,
2013-12-23 08:23:00,11.0,7.6,30.34,NNE,14,0.0,1.0,86,0.00,,,0.00,VWS V12.07,2013-12-23 14:23:00,
2013-12-23 08:28:00,11.0,7.6,30.34,NNE,14,0.0,1.0,86,0.00,,,0.00,VWS V12.07,2013-12-23 14:28:00,
2013-12-23 08:38:00,11.0,7.6,30.34,NNE,19,0.0,2.0,86,0.00,,,0.00,VWS V12.07,2013-12-23 14:38:00,
2013-12-23 08:43:00,11.0,7.6,30.34,NNE,21,0.0,3.0,86,0.00,,,0.00,VWS V12.07,2013-12-23 14:43:00,
2013-12-23 08:48:00,11.0,7.6,30.34,NNE,21,1.0,3.0,86,0.00,,,0.00,VWS V12.07,2013-12-23 14:48:00,
2013-12-23 08:53:00,11.1,7.7,30.35,NNE,21,1.0,3.0,86,0.00,,,0.00,VWS V12.07,2013-12-23 14:53:00,
2013-12-23 08:58:00,11.0,7.4,30.35,NNE,29,0.0,3.0,85,0.00,,,0.00,VWS V12.07,2013-12-23 14:58:00,
2013-12-23 09:03:00,11.1,7.7,30.35,NNE,29,0.0,0.0,86,0.00,,,0.00,VWS V12.07,2013-12-23 15:03:00,
2013-12-23 09:08:00,11.1,7.5,30.35,NE,39,0.0,3.0,85,0.00,,,0.00,VWS V12.07,2013-12-23 15:08:00,
2013-12-23 09:13:00,11.1,7.7,30.35,NNE,20,2.0,3.0,86,0.00,,,0.00,VWS V12.07,2013-12-23 15:13:00,
2013-12-23 09:18:00,11.2,7.6,30.35,NNE,30,0.0,3.0,85,0.00,,,0.00,VWS V12.07,2013-12-23 15:18:00,
2013-12-23 09:23:00,11.3,7.7,30.36,NNE,30,0.0,3.0,85,0.00,,,0.00,VWS V12.07,2013-12-23 15:23:00,
2013-12-23 09:33:00,11.6,8.0,30.36,NNE,27,1.0,2.0,85,0.00,,,0.00,VWS V12.07,2013-12-23 15:33:00,
2013-12-23 09:38:00,11.8,8.2,30.36,NE,55,1.0,3.0,85,0.00,,,0.00,VWS V12.07,2013-12-23 15:38:00,
2013-12-23 09:43:00,11.9,8.3,30.36,NE,55,0.0,3.0,85,0.00,,,0.00,VWS V12.07,2013-12-23 15:43:00,
2013-12-23 09:53:00,12.3,8.7,30.36,NE,55,0.0,3.0,85,0.00,,,0.00,VWS V12.07,2013-12-23 15:53:00,
2013-12-23 09:58:00,12.6,9.0,30.37,NE,52,1.0,3.0,85,0.00,,,0.00,VWS V12.07,2013-12-23 15:58:00,
2013-12-23 10:03:00,12.8,9.1,30.37,NE,51,1.0,1.0,85,0.00,,,0.00,VWS V12.07,2013-12-23 16:03:00,
2013-12-23 10:13:00,13.2,9.3,30.37,NE,42,2.0,4.0,84,0.00,,,0.00,VWS V12.07,2013-12-23 16:13:00,
2013-12-23 10:23:00,13.2,9.0,30.37,NE,44,3.0,5.0,83,0.00,,,0.00,VWS V12.07,2013-12-23 16:23:00,
2013-12-23 10:28:00,13.3,9.4,30.37,NNE,29,0.0,5.0,84,0.00,,,0.00,VWS V12.07,2013-12-23 16:28:00,
2013-12-23 10:38:00,13.6,9.4,30.37,NE,45,2.0,3.0,83,0.00,,,0.00,VWS V12.07,2013-12-23 16:38:00,
2013-12-23 10:43:00,13.6,9.4,30.37,NE,34,3.0,4.0,83,0.00,,,0.00,VWS V12.07,2013-12-23 16:43:00,
2013-12-23 10:48:00,13.6,9.4,30.37,ESE,105,1.0,5.0,83,0.00,,,0.00,VWS V12.07,2013-12-23 16:48:00,
2013-12-23 10:53:00,13.6,9.4,30.37,NNE,25,3.0,5.0,83,0.00,,,0.00,VWS V12.07,2013-12-23 16:53:00,
2013-12-23 10:58:00,13.7,9.5,30.37,NE,44,2.0,5.0,83,0.00,,,0.00,VWS V12.07,2013-12-23 16:58:00,
2013-12-23 11:08:00,13.9,9.4,30.37,ESE,107,2.0,3.0,82,0.00,,,0.00,VWS V12.07,2013-12-23 17:08:00,
2013-12-23 11:13:00,14.0,9.5,30.37,ENE,60,0.0,3.0,82,0.00,,,0.00,VWS V12.07,2013-12-23 17:13:00,
2013-12-23 11:18:00,14.0,9.5,30.37,NE,55,1.0,4.0,82,0.00,,,0.00,VWS V12.07,2013-12-23 17:18:00,
2013-12-23 11:28:00,14.2,9.7,30.36,NNE,22,0.0,4.0,82,0.00,,,0.00,VWS V12.07,2013-12-23 17:28:00,
2013-12-23 11:33:00,14.4,9.9,30.36,NNE,23,0.0,1.0,82,0.00,,,0.00,VWS V12.07,2013-12-23 17:33:00,
2013-12-23 11:43:00,14.8,10.3,30.36,North,350,0.0,3.0,82,0.00,,,0.00,VWS V12.07,2013-12-23 17:43:00,
2013-12-23 11:48:00,15.0,10.5,30.36,NE,50,0.0,3.0,82,0.00,,,0.00,VWS V12.07,2013-12-23 17:48:00,
2013-12-23 11:58:00,15.0,10.5,30.36,NNE,24,2.0,3.0,82,0.00,,,0.00,VWS V12.07,2013-12-23 17:58:00,
2013-12-23 12:08:00,15.2,11.0,30.36,North,355,0.0,5.0,83,0.00,,,0.00,VWS V12.07,2013-12-23 18:08:00,
2013-12-23 12:13:00,15.3,10.8,30.36,NE,44,0.0,5.0,82,0.00,,,0.00,VWS V12.07,2013-12-23 18:13:00,
2013-12-23 12:18:00,15.0,10.2,30.36,NE,49,3.0,5.0,81,0.00,,,0.00,VWS V12.07,2013-12-23 18:18:00,
2013-12-23 12:23:00,14.9,10.1,30.36,NE,42,2.0,5.0,81,0.00,,,0.00,VWS V12.07,2013-12-23 18:23:00,
2013-12-23 12:28:00,14.7,9.4,30.36,NNE,29,3.0,6.0,79,0.00,,,0.00,VWS V12.07,2013-12-23 18:28:00,
2013-12-23 12:33:00,14.6,9.3,30.36,NNE,19,3.0,4.0,79,0.00,,,0.00,VWS V12.07,2013-12-23 18:33:00,
2013-12-23 12:43:00,14.5,9.5,30.36,NNE,19,3.0,5.0,80,0.00,,,0.00,VWS V12.07,2013-12-23 18:43:00,
2013-12-23 12:48:00,14.5,9.5,30.36,NNE,25,2.0,5.0,80,0.00,,,0.00,VWS V12.07,2013-12-23 18:48:00,
2013-12-23 12:53:00,14.6,9.6,30.36,NNE,17,3.0,5.0,80,0.00,,,0.00,VWS V12.07,2013-12-23 18:53:00,
2013-12-23 12:58:00,14.7,9.7,30.36,NNE,30,3.0,5.0,80,0.00,,,0.00,VWS V12.07,2013-12-23 18:58:00,
2013-12-23 13:03:00,14.6,9.3,30.37,NNE,19,1.0,4.0,79,0.00,,,0.00,VWS V12.07,2013-12-23 19:03:00,
2013-12-23 13:13:00,14.6,9.8,30.37,NNE,32,4.0,6.0,81,0.00,,,0.00,VWS V12.07,2013-12-23 19:13:00,
2013-12-23 13:18:00,14.6,9.8,30.37,NNE,19,3.0,6.0,81,0.00,,,0.00,VWS V12.07,2013-12-23 19:18:00,
2013-12-23 13:23:00,14.6,9.8,30.37,NE,44,3.0,6.0,81,0.00,,,0.00,VWS V12.07,2013-12-23 19:23:00,
2013-12-23 13:28:00,14.5,9.7,30.37,NE,45,3.0,6.0,81,0.00,,,0.00,VWS V12.07,2013-12-23 19:28:00,
2013-12-23 13:38:00,14.5,10.0,30.37,NE,37,3.0,5.0,82,0.00,,,0.00,VWS V12.07,2013-12-23 19:38:00,
2013-12-23 13:43:00,14.6,10.1,30.37,NNE,23,3.0,6.0,82,0.00,,,0.00,VWS V12.07,2013-12-23 19:43:00,
2013-12-23 13:53:00,14.4,9.6,30.37,NNE,27,1.0,6.0,81,0.00,,,0.00,VWS V12.07,2013-12-23 19:53:00,
2013-12-23 13:58:00,14.5,9.7,30.37,NNE,15,1.0,6.0,81,0.00,,,0.00,VWS V12.07,2013-12-23 19:58:00,
2013-12-23 14:08:00,14.7,9.9,30.38,NNE,27,2.0,5.0,81,0.00,,,0.00,VWS V12.07,2013-12-23 20:08:00,
2013-12-23 14:13:00,14.8,9.5,30.38,NE,49,1.0,6.0,79,0.00,,,0.00,VWS V12.07,2013-12-23 20:13:00,
2013-12-23 14:23:00,14.8,9.5,30.38,NE,51,2.0,6.0,79,0.00,,,0.00,VWS V12.07,2013-12-23 20:23:00,
2013-12-23 14:28:00,14.7,9.1,30.38,NNE,13,2.0,6.0,78,0.00,,,0.00,VWS V12.07,2013-12-23 20:28:00,
2013-12-23 14:33:00,14.7,9.4,30.38,NE,44,4.0,4.0,79,0.00,,,0.00,VWS V12.07,2013-12-23 20:33:00,
2013-12-23 14:38:00,14.7,9.7,30.38,NNE,17,0.0,5.0,80,0.00,,,0.00,VWS V12.07,2013-12-23 20:38:00,
2013-12-23 14:43:00,14.7,9.9,30.39,NE,34,5.0,6.0,81,0.00,,,0.00,VWS V12.07,2013-12-23 20:43:00,
2013-12-23 14:48:00,14.5,9.2,30.39,NE,46,2.0,7.0,79,0.00,,,0.00,VWS V12.07,2013-12-23 20:48:00,
2013-12-23 14:53:00,14.3,9.3,30.39,NE,53,0.0,7.0,80,0.00,,,0.00,VWS V12.07,2013-12-23 20:53:00,
2013-12-23 14:58:00,14.3,9.3,30.39,NNE,30,6.0,8.0,80,0.00,,,0.00,VWS V12.07,2013-12-23 20:58:00,
2013-12-23 15:03:00,14.3,9.0,30.39,NNE,28,2.0,3.0,79,0.00,,,0.00,VWS V12.07,2013-12-23 21:03:00,
2013-12-23 15:08:00,14.3,8.7,30.39,NE,46,2.0,5.0,78,0.00,,,0.00,VWS V12.07,2013-12-23 21:08:00,
2013-12-23 15:18:00,14.1,8.8,30.39,North,360,0.0,6.0,79,0.00,,,0.00,VWS V12.07,2013-12-23 21:18:00,
2013-12-23 15:23:00,14.0,8.7,30.40,NE,46,2.0,6.0,79,0.00,,,0.00,VWS V12.07,2013-12-23 21:23:00,
2013-12-23 15:33:00,13.6,8.3,30.40,NE,34,1.0,3.0,79,0.00,,,0.00,VWS V12.07,2013-12-23 21:33:00,
2013-12-23 15:38:00,13.4,8.1,30.40,NE,38,1.0,3.0,79,0.00,,,0.00,VWS V12.07,2013-12-23 21:38:00,
2013-12-23 15:43:00,13.3,8.3,30.40,NE,37,1.0,3.0,80,0.00,,,0.00,VWS V12.07,2013-12-23 21:43:00,
2013-12-23 15:48:00,13.1,8.1,30.41,NE,37,0.0,3.0,80,0.00,,,0.00,VWS V12.07,2013-12-23 21:48:00,
2013-12-23 15:53:00,12.9,7.9,30.41,ENE,57,0.0,3.0,80,0.00,,,0.00,VWS V12.07,2013-12-23 21:53:00,
2013-12-23 15:58:00,12.7,8.0,30.41,NNE,30,0.0,3.0,81,0.00,,,0.00,VWS V12.07,2013-12-23 21:58:00,
2013-12-23 16:03:00,12.5,7.8,30.41,NE,36,0.0,1.0,81,0.00,,,0.00,VWS V12.07,2013-12-23 22:03:00,
2013-12-23 16:08:00,12.5,8.1,30.41,NE,36,0.0,2.0,82,0.00,,,0.00,VWS V12.07,2013-12-23 22:08:00,
2013-12-23 16:18:00,11.9,7.2,30.42,NE,35,0.0,2.0,81,0.00,,,0.00,VWS V12.07,2013-12-23 22:18:00,
2013-12-23 16:23:00,11.4,6.7,30.42,NE,35,0.0,2.0,81,0.00,,,0.00,VWS V12.07,2013-12-23 22:23:00,
2013-12-23 16:28:00,10.9,6.2,30.42,NE,35,0.0,2.0,81,0.00,,,0.00,VWS V12.07,2013-12-23 22:28:00,
2013-12-23 16:38:00,10.1,5.7,30.42,NE,36,0.0,0.0,82,0.00,,,0.00,VWS V12.07,2013-12-23 22:38:00,
2013-12-23 16:43:00,9.8,5.4,30.43,NE,36,0.0,0.0,82,0.00,,,0.00,VWS V12.07,2013-12-23 22:43:00,
2013-12-23 16:48:00,9.4,5.0,30.43,NE,36,0.0,0.0,82,0.00,,,0.00,VWS V12.07,2013-12-23 22:48:00,
2013-12-23 16:53:00,9.0,4.9,30.43,NE,36,0.0,0.0,83,0.00,,,0.00,VWS V12.07,2013-12-23 22:53:00,
2013-12-23 16:58:00,8.7,4.6,30.43,NE,36,0.0,1.0,83,0.00,,,0.00,VWS V12.07,2013-12-23 22:58:00,
2013-12-23 17:03:00,8.5,4.4,30.43,NE,36,0.0,0.0,83,0.00,,,0.00,VWS V12.07,2013-12-23 23:03:00,
2013-12-23 17:08:00,8.2,4.4,30.43,NE,36,0.0,0.0,84,0.00,,,0.00,VWS V12.07,2013-12-23 23:08:00,
2013-12-23 17:13:00,8.0,4.2,30.43,NE,36,0.0,0.0,84,0.00,,,0.00,VWS V12.07,2013-12-23 23:13:00,
2013-12-23 17:18:00,7.8,4.0,30.43,NE,36,0.0,0.0,84,0.00,,,0.00,VWS V12.07,2013-12-23 23:18:00,
2013-12-23 17:23:00,7.7,4.1,30.44,NE,36,0.0,1.0,85,0.00,,,0.00,VWS V12.07,2013-12-23 23:23:00,
2013-12-23 17:28:00,7.6,3.8,30.44,NE,36,0.0,1.0,84,0.00,,,0.00,VWS V12.07,2013-12-23 23:28:00,
2013-12-23 17:33:00,7.5,3.9,30.44,NE,36,0.0,0.0,85,0.00,,,0.00,VWS V12.07,2013-12-23 23:33:00,
2013-12-23 17:38:00,7.6,4.0,30.44,NE,36,0.0,0.0,85,0.00,,,0.00,VWS V12.07,2013-12-23 23:38:00,
2013-12-23 17:43:00,7.6,4.0,30.45,NE,36,0.0,0.0,85,0.00,,,0.00,VWS V12.07,2013-12-23 23:43:00,
2013-12-23 17:48:00,7.8,4.5,30.45,NE,36,0.0,0.0,86,0.00,,,0.00,VWS V12.07,2013-12-23 23:48:00,
2013-12-23 17:53:00,8.0,4.7,30.45,NE,36,0.0,0.0,86,0.00,,,0.00,VWS V12.07,2013-12-23 23:53:00,
2013-12-23 17:58:00,8.0,4.4,30.45,NE,36,0.0,0.0,85,0.00,,,0.00,VWS V12.07,2013-12-23 23:58:00,
2013-12-23 18:03:00,8.0,4.4,30.45,NE,36,0.0,0.0,85,0.00,,,0.00,VWS V12.07,2013-12-24 00:03:00,
2013-12-23 18:08:00,8.0,4.4,30.45,NE,36,0.0,0.0,85,0.00,,,0.00,VWS V12.07,2013-12-24 00:08:00,
2013-12-23 18:13:00,7.9,4.3,30.45,NE,36,0.0,0.0,85,0.00,,,0.00,VWS V12.07,2013-12-24 00:13:00,
2013-12-23 18:18:00,7.8,4.2,30.45,NE,36,0.0,0.0,85,0.00,,,0.00,VWS V12.07,2013-12-24 00:18:00,
2013-12-23 18:23:00,7.9,4.3,30.45,NE,36,0.0,0.0,85,0.00,,,0.00,VWS V12.07,2013-12-24 00:23:00,
2013-12-23 18:28:00,7.7,3.9,30.45,NE,36,0.0,0.0,84,0.00,,,0.00,VWS V12.07,2013-12-24 00:28:00,
2013-12-23 18:38:00,7.2,3.4,30.45,NE,36,0.0,0.0,84,0.00,,,0.00,VWS V12.07,2013-12-24 00:38:00,
2013-12-23 18:43:00,6.9,3.1,30.46,NE,36,0.0,0.0,84,0.00,,,0.00,VWS V12.07,2013-12-24 00:43:00,
2013-12-23 18:48:00,6.5,2.7,30.46,NE,36,0.0,0.0,84,0.00,,,0.00,VWS V12.07,2013-12-24 00:48:00,
2013-12-23 18:53:00,6.2,2.4,30.46,NE,36,0.0,0.0,84,0.00,,,0.00,VWS V12.07,2013-12-24 00:53:00,
2013-12-23 18:58:00,5.8,2.0,30.46,NE,36,0.0,0.0,84,0.00,,,0.00,VWS V12.07,2013-12-24 00:58:00,
2013-12-23 19:03:00,5.4,1.6,30.46,NE,36,0.0,0.0,84,0.00,,,0.00,VWS V12.07,2013-12-24 01:03:00,
2013-12-23 19:08:00,5.0,1.2,30.47,NE,36,0.0,0.0,84,0.00,,,0.00,VWS V12.07,2013-12-24 01:08:00,
2013-12-23 19:18:00,4.4,0.6,30.47,NE,36,0.0,0.0,84,0.00,,,0.00,VWS V12.07,2013-12-24 01:18:00,
2013-12-23 19:23:00,4.1,0.3,30.47,NE,36,0.0,0.0,84,0.00,,,0.00,VWS V12.07,2013-12-24 01:23:00,
2013-12-23 19:33:00,3.4,-0.6,30.48,NE,36,0.0,0.0,83,0.00,,,0.00,VWS V12.07,2013-12-24 01:33:00,
2013-12-23 19:38:00,3.1,-0.6,30.48,NE,36,0.0,0.0,84,0.00,,,0.00,VWS V12.07,2013-12-24 01:38:00,
2013-12-23 19:43:00,2.8,-0.9,30.48,NE,36,0.0,0.0,84,0.00,,,0.00,VWS V12.07,2013-12-24 01:43:00,
2013-12-23 19:53:00,2.4,-1.3,30.48,NE,36,0.0,0.0,84,0.00,,,0.00,VWS V12.07,2013-12-24 01:53:00,
2013-12-23 19:58:00,2.2,-1.5,30.48,NE,36,0.0,0.0,84,0.00,,,0.00,VWS V12.07,2013-12-24 01:58:00,
2013-12-23 20:03:00,1.9,-1.8,30.48,NE,36,0.0,0.0,84,0.00,,,0.00,VWS V12.07,2013-12-24 02:03:00,
2013-12-23 20:13:00,1.5,-2.5,30.48,NE,36,0.0,0.0,83,0.00,,,0.00,VWS V12.07,2013-12-24 02:13:00,
2013-12-23 20:23:00,0.9,-3.0,30.48,NE,35,0.0,0.0,83,0.00,,,0.00,VWS V12.07,2013-12-24 02:23:00,
2013-12-23 20:28:00,0.7,-3.2,30.48,NE,36,0.0,0.0,83,0.00,,,0.00,VWS V12.07,2013-12-24 02:28:00,
2013-12-23 20:33:00,0.5,-3.4,30.48,NE,36,0.0,0.0,83,0.00,,,0.00,VWS V12.07,2013-12-24 02:33:00,
2013-12-23 20:43:00,0.1,-3.8,30.48,NE,36,0.0,0.0,83,0.00,,,0.00,VWS V12.07,2013-12-24 02:43:00,
2013-12-23 20:53:00,-0.4,-4.3,30.48,NE,36,0.0,0.0,83,0.00,,,0.00,VWS V12.07,2013-12-24 02:53:00,
2013-12-23 20:58:00,-0.6,-4.5,30.48,NE,36,0.0,0.0,83,0.00,,,0.00,VWS V12.07,2013-12-24 02:58:00,
2013-12-23 21:03:00,-0.7,-4.6,30.49,NE,36,0.0,0.0,83,0.00,,,0.00,VWS V12.07,2013-12-24 03:03:00,
2013-12-23 21:08:00,-0.8,-4.7,30.49,NE,36,0.0,0.0,83,0.00,,,0.00,VWS V12.07,2013-12-24 03:08:00,
2013-12-23 21:13:00,-1.0,-4.9,30.49,NE,36,0.0,0.0,83,0.00,,,0.00,VWS V12.07,2013-12-24 03:13:00,
2013-12-23 21:23:00,-1.4,-5.3,30.49,NE,36,0.0,0.0,83,0.00,,,0.00,VWS V12.07,2013-12-24 03:23:00,
2013-12-23 21:33:00,-1.8,-5.7,30.49,NE,36,0.0,0.0,83,0.00,,,0.00,VWS V12.07,2013-12-24 03:33:00,
2013-12-23 21:38:00,-1.9,-5.8,30.49,NE,36,0.0,0.0,83,0.00,,,0.00,VWS V12.07,2013-12-24 03:38:00,
2013-12-23 21:43:00,-2.1,-6.0,30.49,NE,36,0.0,0.0,83,0.00,,,0.00,VWS V12.07,2013-12-24 03:43:00,
2013-12-23 21:48:00,-2.2,-6.1,30.49,NE,36,0.0,0.0,83,0.00,,,0.00,VWS V12.07,2013-12-24 03:48:00,
2013-12-23 21:53:00,-2.4,-6.3,30.49,NE,36,0.0,0.0,83,0.00,,,0.00,VWS V12.07,2013-12-24 03:53:00,
2013-12-23 22:03:00,-2.7,-6.8,30.49,NE,36,0.0,0.0,82,0.00,,,0.00,VWS V12.07,2013-12-24 04:03:00,
2013-12-23 22:08:00,-3.0,-7.1,30.49,NE,36,0.0,0.0,82,0.00,,,0.00,VWS V12.07,2013-12-24 04:08:00,
2013-12-23 22:13:00,-3.1,-7.0,30.49,NE,36,0.0,0.0,83,0.00,,,0.00,VWS V12.07,2013-12-24 04:13:00,
2013-12-23 22:18:00,-3.3,-7.4,30.49,NE,36,0.0,0.0,82,0.00,,,0.00,VWS V12.07,2013-12-24 04:18:00,
2013-12-23 22:23:00,-3.5,-7.6,30.49,NE,36,0.0,0.0,82,0.00,,,0.00,VWS V12.07,2013-12-24 04:23:00,
2013-12-23 22:28:00,-3.6,-7.7,30.49,NE,36,0.0,0.0,82,0.00,,,0.00,VWS V12.07,2013-12-24 04:28:00,
2013-12-23 22:33:00,-3.7,-7.8,30.49,NE,36,0.0,0.0,82,0.00,,,0.00,VWS V12.07,2013-12-24 04:33:00,
2013-12-23 22:38:00,-3.9,-8.0,30.50,NE,36,0.0,0.0,82,0.00,,,0.00,VWS V12.07,2013-12-24 04:38:00,
2013-12-23 22:43:00,-4.0,-7.8,30.50,NE,36,0.0,0.0,83,0.00,,,0.00,VWS V12.07,2013-12-24 04:43:00,
2013-12-23 22:48:00,-4.2,-8.0,30.49,NE,36,0.0,0.0,83,0.00,,,0.00,VWS V12.07,2013-12-24 04:48:00,
2013-12-23 22:58:00,-4.5,-8.6,30.50,NE,36,0.0,0.0,82,0.00,,,0.00,VWS V12.07,2013-12-24 04:58:00,
2013-12-23 23:03:00,-4.4,-8.2,30.50,NE,36,0.0,0.0,83,0.00,,,0.00,VWS V12.07,2013-12-24 05:03:00,
2013-12-23 23:13:00,-4.7,-8.8,30.50,NE,36,0.0,0.0,82,0.00,,,0.00,VWS V12.07,2013-12-24 05:13:00,
2013-12-23 23:18:00,-4.9,-9.0,30.50,NE,36,0.0,0.0,82,0.00,,,0.00,VWS V12.07,2013-12-24 05:18:00,
2013-12-23 23:23:00,-5.0,-8.8,30.50,NE,36,0.0,0.0,83,0.00,,,0.00,VWS V12.07,2013-12-24 05:23:00,
2013-12-23 23:28:00,-5.0,-9.1,30.50,NE,36,0.0,0.0,82,0.00,,,0.00,VWS V12.07,2013-12-24 05:28:00,
2013-12-23 23:33:00,-5.2,-9.3,30.50,NE,36,0.0,0.0,82,0.00,,,0.00,VWS V12.07,2013-12-24 05:33:00,
2013-12-23 23:38:00,-5.4,-9.5,30.50,NE,36,0.0,0.0,82,0.00,,,0.00,VWS V12.07,2013-12-24 05:38:00,
2013-12-23 23:43:00,-5.6,-9.7,30.50,NE,36,0.0,0.0,82,0.00,,,0.00,VWS V12.07,2013-12-24 05:43:00,
2013-12-23 23:48:00,-5.8,-9.9,30.51,NE,36,0.0,0.0,82,0.00,,,0.00,VWS V12.07,2013-12-24 05:48:00,
2013-12-23 23:53:00,-5.7,-9.5,30.51,NE,36,0.0,0.0,83,0.00,,,0.00,VWS V12.07,2013-12-24 05:53:00,
2013-12-23 23:58:00,-5.8,-9.9,30.51,NE,34,0.0,0.0,82,0.00,,,0.00,VWS V12.07,2013-12-24 05:58:00,